Year,Month,Day,Hour,Minute,Value (Times are PST for windspeed in km/hr)
2016,03,13,00,00,3.20
2016,03,13,00,01,3.30
2016,03,13,00,02,3.20
2016,03,13,00,03,2.40
2016,03,13,00,04,2.80
2016,03,13,00,05,3.00
2016,03,13,00,06,3.20
2016,03,13,00,07,3.30
2016,03,13,00,08,3.00
2016,03,13,00,09,3.00
2016,03,13,00,10,3.70
2016,03,13,00,11,4.10
2016,03,13,00,12,4.70
2016,03,13,00,13,4.10
2016,03,13,00,14,3.40
2016,03,13,00,15,2.50
2016,03,13,00,16,3.10
2016,03,13,00,17,3.90
2016,03,13,00,18,2.60
2016,03,13,00,19,3.20
2016,03,13,00,20,2.50
2016,03,13,00,21,2.70
2016,03,13,00,22,2.00
2016,03,13,00,23,2.30
2016,03,13,00,24,2.50
2016,03,13,00,25,2.90
2016,03,13,00,26,4.00
2016,03,13,00,27,4.30
2016,03,13,00,28,3.40
2016,03,13,00,29,2.40
2016,03,13,00,30,1.60
2016,03,13,00,31,1.10
2016,03,13,00,32,0.80
2016,03,13,00,33,1.40
2016,03,13,00,34,2.20
2016,03,13,00,35,3.60
2016,03,13,00,36,4.10
2016,03,13,00,37,3.90
2016,03,13,00,38,4.40
2016,03,13,00,39,5.20
2016,03,13,00,40,4.90
2016,03,13,00,41,5.10
2016,03,13,00,42,4.90
2016,03,13,00,43,4.90
2016,03,13,00,44,4.90
2016,03,13,00,45,5.10
2016,03,13,00,46,4.80
2016,03,13,00,47,4.70
2016,03,13,00,48,5.20
2016,03,13,00,49,4.90
2016,03,13,00,50,6.40
2016,03,13,00,51,5.60
2016,03,13,00,52,4.60
2016,03,13,00,53,5.50
2016,03,13,00,54,3.20
2016,03,13,00,55,5.00
2016,03,13,00,56,6.60
2016,03,13,00,57,5.80
2016,03,13,00,58,4.40
2016,03,13,00,59,4.80
2016,03,13,01,00,6.00
2016,03,13,01,01,5.10
2016,03,13,01,02,6.40
2016,03,13,01,03,7.60
2016,03,13,01,04,12.60
2016,03,13,01,05,10.50
2016,03,13,01,06,12.00
2016,03,13,01,07,13.40
2016,03,13,01,08,13.30
2016,03,13,01,09,15.90
2016,03,13,01,10,14.20
2016,03,13,01,11,14.70
2016,03,13,01,12,16.80
2016,03,13,01,13,13.60
2016,03,13,01,14,18.90
2016,03,13,01,15,12.80
2016,03,13,01,16,13.70
2016,03,13,01,17,17.40
2016,03,13,01,18,13.10
2016,03,13,01,19,14.00
2016,03,13,01,20,14.60
2016,03,13,01,21,12.20
2016,03,13,01,22,15.00
2016,03,13,01,23,13.00
2016,03,13,01,24,9.70
2016,03,13,01,25,11.90
2016,03,13,01,26,11.20
2016,03,13,01,27,16.90
2016,03,13,01,28,9.60
2016,03,13,01,29,15.10
2016,03,13,01,30,13.90
2016,03,13,01,31,12.40
2016,03,13,01,32,12.60
2016,03,13,01,33,9.80
2016,03,13,01,34,10.60
2016,03,13,01,35,10.90
2016,03,13,01,36,9.10
2016,03,13,01,37,7.80
2016,03,13,01,38,15.30
2016,03,13,01,39,10.90
2016,03,13,01,40,9.30
2016,03,13,01,41,8.60
2016,03,13,01,42,12.30
2016,03,13,01,43,9.10
2016,03,13,01,44,13.80
2016,03,13,01,45,11.70
2016,03,13,01,46,7.30
2016,03,13,01,47,11.30
2016,03,13,01,48,13.00
2016,03,13,01,49,13.40
2016,03,13,01,50,10.40
2016,03,13,01,51,9.90
2016,03,13,01,52,12.30
2016,03,13,01,53,11.90
2016,03,13,01,54,7.90
2016,03,13,01,55,12.90
2016,03,13,01,56,16.50
2016,03,13,01,57,10.00
2016,03,13,01,58,9.80
2016,03,13,01,59,8.80
2016,03,13,03,00,9.50
2016,03,13,03,01,11.40
2016,03,13,03,02,11.70
2016,03,13,03,03,9.70
2016,03,13,03,04,9.90
2016,03,13,03,05,11.00
2016,03,13,03,06,8.30
2016,03,13,03,07,5.40
2016,03,13,03,08,5.10
2016,03,13,03,09,5.60
2016,03,13,03,10,7.10
2016,03,13,03,11,7.00
2016,03,13,03,12,9.20
2016,03,13,03,13,7.50
2016,03,13,03,14,5.30
2016,03,13,03,15,8.10
2016,03,13,03,16,6.80
2016,03,13,03,17,6.90
2016,03,13,03,18,6.70
2016,03,13,03,19,8.10
2016,03,13,03,20,6.30
2016,03,13,03,21,11.90
2016,03,13,03,22,7.90
2016,03,13,03,23,8.80
2016,03,13,03,24,8.50
2016,03,13,03,25,7.10
2016,03,13,03,26,10.20
2016,03,13,03,27,7.30
2016,03,13,03,28,7.50
2016,03,13,03,29,9.80
2016,03,13,03,30,9.80
2016,03,13,03,31,10.90
2016,03,13,03,32,10.30
2016,03,13,03,33,9.20
2016,03,13,03,34,11.00
2016,03,13,03,35,8.00
2016,03,13,03,36,10.20
2016,03,13,03,37,9.20
2016,03,13,03,38,9.60
2016,03,13,03,39,7.20
2016,03,13,03,40,13.50
2016,03,13,03,41,13.50
2016,03,13,03,42,9.70
2016,03,13,03,43,14.30
2016,03,13,03,44,10.20
2016,03,13,03,45,9.10
2016,03,13,03,46,8.00
2016,03,13,03,47,8.50
2016,03,13,03,48,14.90
2016,03,13,03,49,14.70
2016,03,13,03,50,18.90
2016,03,13,03,51,16.70
2016,03,13,03,52,12.20
2016,03,13,03,53,17.90
2016,03,13,03,54,18.10
2016,03,13,03,55,13.90
2016,03,13,03,56,14.00
2016,03,13,03,57,21.00
2016,03,13,03,58,23.30
2016,03,13,03,59,16.00
2016,03,13,04,00,15.80
2016,03,13,04,01,24.50
2016,03,13,04,02,24.10
2016,03,13,04,03,22.80
2016,03,13,04,04,26.70
2016,03,13,04,05,18.70
2016,03,13,04,06,17.90
2016,03,13,04,07,21.20
2016,03,13,04,08,23.50
2016,03,13,04,09,27.30
2016,03,13,04,10,21.00
2016,03,13,04,11,17.40
2016,03,13,04,12,24.60
2016,03,13,04,13,23.10
2016,03,13,04,14,25.20
2016,03,13,04,15,25.70
2016,03,13,04,16,23.80
2016,03,13,04,17,24.60
2016,03,13,04,18,30.30
2016,03,13,04,19,26.70
2016,03,13,04,20,28.40
2016,03,13,04,21,26.60
2016,03,13,04,22,27.60
2016,03,13,04,23,17.70
2016,03,13,04,24,22.90
2016,03,13,04,25,19.10
2016,03,13,04,26,28.60
2016,03,13,04,27,23.80
2016,03,13,04,28,15.70
2016,03,13,04,29,19.10
2016,03,13,04,30,25.40
2016,03,13,04,31,22.50
2016,03,13,04,32,19.80
2016,03,13,04,33,18.00
2016,03,13,04,34,16.20
2016,03,13,04,35,21.80
2016,03,13,04,36,26.80
2016,03,13,04,37,26.00
2016,03,13,04,38,27.00
2016,03,13,04,39,18.30
2016,03,13,04,40,33.10
2016,03,13,04,41,27.20
2016,03,13,04,42,23.40
2016,03,13,04,43,27.40
2016,03,13,04,44,30.30
2016,03,13,04,45,30.70
2016,03,13,04,46,26.80
2016,03,13,04,47,22.30
2016,03,13,04,48,28.60
2016,03,13,04,49,30.20
2016,03,13,04,50,31.90
2016,03,13,04,51,22.90
2016,03,13,04,52,29.00
2016,03,13,04,53,31.10
2016,03,13,04,54,28.40
2016,03,13,04,55,27.60
2016,03,13,04,56,20.40
2016,03,13,04,57,24.40
2016,03,13,04,58,29.10
2016,03,13,04,59,32.40
2016,03,13,05,00,22.90
2016,03,13,05,01,18.50
2016,03,13,05,02,35.30
2016,03,13,05,03,32.00
2016,03,13,05,04,27.40
2016,03,13,05,05,27.40
2016,03,13,05,06,31.80
2016,03,13,05,07,22.80
2016,03,13,05,08,21.40
2016,03,13,05,09,16.70
2016,03,13,05,10,24.10
2016,03,13,05,11,23.40
2016,03,13,05,12,22.00
2016,03,13,05,13,30.10
2016,03,13,05,14,28.40
2016,03,13,05,15,29.20
2016,03,13,05,16,28.20
2016,03,13,05,17,27.40
2016,03,13,05,18,24.70
2016,03,13,05,19,26.20
2016,03,13,05,20,30.30
2016,03,13,05,21,26.60
2016,03,13,05,22,26.70
2016,03,13,05,23,32.80
2016,03,13,05,24,31.10
2016,03,13,05,25,27.90
2016,03,13,05,26,31.80
2016,03,13,05,27,32.90
2016,03,13,05,28,22.30
2016,03,13,05,29,20.80
2016,03,13,05,30,27.90
2016,03,13,05,31,27.30
2016,03,13,05,32,28.50
2016,03,13,05,33,22.00
2016,03,13,05,34,23.40
2016,03,13,05,35,27.40
2016,03,13,05,36,22.00
2016,03,13,05,37,22.80
2016,03,13,05,38,23.90
2016,03,13,05,39,33.70
2016,03,13,05,40,29.90
2016,03,13,05,41,32.40
2016,03,13,05,42,30.60
2016,03,13,05,43,34.30
2016,03,13,05,44,34.40
2016,03,13,05,45,25.00
2016,03,13,05,46,21.10
2016,03,13,05,47,33.40
2016,03,13,05,48,29.30
2016,03,13,05,49,22.60
2016,03,13,05,50,34.30
2016,03,13,05,51,25.80
2016,03,13,05,52,34.00
2016,03,13,05,53,26.90
2016,03,13,05,54,32.80
2016,03,13,05,55,31.30
2016,03,13,05,56,29.30
2016,03,13,05,57,24.90
2016,03,13,05,58,22.60
2016,03,13,05,59,34.10
2016,03,13,06,00,26.00
2016,03,13,06,01,38.50
2016,03,13,06,02,35.50
2016,03,13,06,03,25.30
2016,03,13,06,04,29.90
2016,03,13,06,05,31.60
2016,03,13,06,06,29.60
2016,03,13,06,07,29.30
2016,03,13,06,08,29.30
2016,03,13,06,09,27.00
2016,03,13,06,10,24.00
2016,03,13,06,11,28.20
2016,03,13,06,12,33.80
2016,03,13,06,13,21.90
2016,03,13,06,14,12.10
2016,03,13,06,15,23.30
2016,03,13,06,16,30.00
2016,03,13,06,17,23.50
2016,03,13,06,18,19.60
2016,03,13,06,19,27.40
2016,03,13,06,20,16.30
2016,03,13,06,21,21.70
2016,03,13,06,22,22.90
2016,03,13,06,23,26.00
2016,03,13,06,24,18.60
2016,03,13,06,25,14.80
2016,03,13,06,26,23.50
2016,03,13,06,27,29.70
2016,03,13,06,28,26.20
2016,03,13,06,29,25.20
2016,03,13,06,30,28.50
2016,03,13,06,31,20.00
2016,03,13,06,32,21.20
2016,03,13,06,33,25.30
2016,03,13,06,34,25.10
2016,03,13,06,35,24.10
2016,03,13,06,36,24.70
2016,03,13,06,37,21.50
2016,03,13,06,38,24.80
2016,03,13,06,39,18.00
2016,03,13,06,40,19.10
2016,03,13,06,41,18.70
2016,03,13,06,42,25.10
2016,03,13,06,43,30.20
2016,03,13,06,44,23.90
2016,03,13,06,45,26.80
2016,03,13,06,46,26.40
2016,03,13,06,47,18.30
2016,03,13,06,48,22.60
2016,03,13,06,49,18.90
2016,03,13,06,50,22.90
2016,03,13,06,51,20.50
2016,03,13,06,52,25.00
2016,03,13,06,53,13.80
2016,03,13,06,54,27.80
2016,03,13,06,55,28.10
2016,03,13,06,56,30.40
2016,03,13,06,57,30.40
2016,03,13,06,58,25.20
2016,03,13,06,59,25.60
2016,03,13,07,00,20.70
2016,03,13,07,01,30.40
2016,03,13,07,02,19.40
2016,03,13,07,03,20.20
2016,03,13,07,04,32.20
2016,03,13,07,05,23.10
2016,03,13,07,06,21.10
2016,03,13,07,07,27.60
2016,03,13,07,08,15.50
2016,03,13,07,09,19.80
2016,03,13,07,10,28.60
2016,03,13,07,11,29.20
2016,03,13,07,12,24.60
2016,03,13,07,13,23.50
2016,03,13,07,14,24.90
2016,03,13,07,15,29.00
2016,03,13,07,16,24.70
2016,03,13,07,17,27.80
2016,03,13,07,18,24.40
2016,03,13,07,19,21.80
2016,03,13,07,20,21.50
2016,03,13,07,21,24.00
2016,03,13,07,22,22.90
2016,03,13,07,23,20.70
2016,03,13,07,24,23.90
2016,03,13,07,25,26.70
2016,03,13,07,26,28.60
2016,03,13,07,27,26.00
2016,03,13,07,28,24.60
2016,03,13,07,29,20.50
2016,03,13,07,30,23.80
2016,03,13,07,31,26.40
2016,03,13,07,32,30.40
2016,03,13,07,33,27.60
2016,03,13,07,34,29.50
2016,03,13,07,35,19.20
2016,03,13,07,36,17.90
2016,03,13,07,37,20.50
2016,03,13,07,38,23.50
2016,03,13,07,39,27.00
2016,03,13,07,40,18.90
2016,03,13,07,41,28.30
2016,03,13,07,42,28.20
2016,03,13,07,43,22.90
2016,03,13,07,44,22.00
2016,03,13,07,45,22.90
2016,03,13,07,46,16.30
2016,03,13,07,47,17.20
2016,03,13,07,48,33.30
2016,03,13,07,49,21.70
2016,03,13,07,50,21.10
2016,03,13,07,51,18.20
2016,03,13,07,52,17.60
2016,03,13,07,53,20.70
2016,03,13,07,54,18.40
2016,03,13,07,55,24.10
2016,03,13,07,56,20.10
2016,03,13,07,57,30.30
2016,03,13,07,58,24.50
2016,03,13,07,59,24.50
2016,03,13,08,00,27.90
2016,03,13,08,01,22.40
2016,03,13,08,02,26.20
2016,03,13,08,03,29.60
2016,03,13,08,04,23.10
2016,03,13,08,05,26.70
2016,03,13,08,06,21.90
2016,03,13,08,07,22.30
2016,03,13,08,08,22.20
2016,03,13,08,09,20.50
2016,03,13,08,10,18.80
2016,03,13,08,11,19.30
2016,03,13,08,12,26.10
2016,03,13,08,13,25.30
2016,03,13,08,14,19.70
2016,03,13,08,15,19.70
2016,03,13,08,16,18.30
2016,03,13,08,17,26.00
2016,03,13,08,18,17.20
2016,03,13,08,19,21.60
2016,03,13,08,20,21.50
2016,03,13,08,21,21.40
2016,03,13,08,22,25.50
2016,03,13,08,23,29.00
2016,03,13,08,24,26.40
2016,03,13,08,25,27.10
2016,03,13,08,26,26.60
2016,03,13,08,27,30.00
2016,03,13,08,28,27.70
2016,03,13,08,29,22.80
2016,03,13,08,30,20.60
2016,03,13,08,31,19.00
2016,03,13,08,32,22.60
2016,03,13,08,33,26.10
2016,03,13,08,34,23.30
2016,03,13,08,35,25.20
2016,03,13,08,36,24.80
2016,03,13,08,37,22.40
2016,03,13,08,38,18.40
2016,03,13,08,39,15.10
2016,03,13,08,40,17.60
2016,03,13,08,41,15.90
2016,03,13,08,42,20.20
2016,03,13,08,43,15.80
2016,03,13,08,44,16.50
2016,03,13,08,45,18.50
2016,03,13,08,46,25.20
2016,03,13,08,47,18.30
2016,03,13,08,48,22.80
2016,03,13,08,49,22.30
2016,03,13,08,50,21.30
2016,03,13,08,51,24.20
2016,03,13,08,52,13.80
2016,03,13,08,53,14.30
2016,03,13,08,54,17.30
2016,03,13,08,55,14.10
2016,03,13,08,56,23.20
2016,03,13,08,57,20.70
2016,03,13,08,58,15.20
2016,03,13,08,59,18.20
2016,03,13,09,00,17.20
2016,03,13,09,01,16.90
2016,03,13,09,02,18.30
2016,03,13,09,03,17.80
2016,03,13,09,04,15.60
2016,03,13,09,05,21.50
2016,03,13,09,06,19.00
2016,03,13,09,07,20.50
2016,03,13,09,08,14.20
2016,03,13,09,09,15.50
2016,03,13,09,10,20.10
2016,03,13,09,11,13.90
2016,03,13,09,12,8.10
2016,03,13,09,13,20.10
2016,03,13,09,14,22.10
2016,03,13,09,15,23.30
2016,03,13,09,16,16.10
2016,03,13,09,17,24.10
2016,03,13,09,18,14.30
2016,03,13,09,19,18.50
2016,03,13,09,20,17.20
2016,03,13,09,21,19.90
2016,03,13,09,22,14.70
2016,03,13,09,23,20.70
2016,03,13,09,24,28.50
2016,03,13,09,25,23.30
2016,03,13,09,26,18.40
2016,03,13,09,27,24.60
2016,03,13,09,28,23.30
2016,03,13,09,29,18.80
2016,03,13,09,30,22.60
2016,03,13,09,31,24.40
2016,03,13,09,32,13.70
2016,03,13,09,33,10.10
2016,03,13,09,34,9.30
2016,03,13,09,35,9.30
2016,03,13,09,36,8.80
2016,03,13,09,37,12.20
2016,03,13,09,38,19.20
2016,03,13,09,39,23.30
2016,03,13,09,40,17.10
2016,03,13,09,41,22.10
2016,03,13,09,42,20.50
2016,03,13,09,43,21.50
2016,03,13,09,44,23.00
2016,03,13,09,45,32.80
2016,03,13,09,46,37.20
2016,03,13,09,47,28.20
2016,03,13,09,48,28.10
2016,03,13,09,49,35.20
2016,03,13,09,50,32.10
2016,03,13,09,51,31.60
2016,03,13,09,52,31.10
2016,03,13,09,53,38.70
2016,03,13,09,54,21.20
2016,03,13,09,55,22.40
2016,03,13,09,56,17.30
2016,03,13,09,57,23.60
2016,03,13,09,58,15.70
2016,03,13,09,59,22.70
2016,03,13,10,00,23.80
2016,03,13,10,01,22.60
2016,03,13,10,02,25.70
2016,03,13,10,03,16.30
2016,03,13,10,04,21.10
2016,03,13,10,05,18.10
2016,03,13,10,06,21.60
2016,03,13,10,07,23.30
2016,03,13,10,08,19.80
2016,03,13,10,09,25.70
2016,03,13,10,10,20.10
2016,03,13,10,11,25.00
2016,03,13,10,12,24.70
2016,03,13,10,13,22.50
2016,03,13,10,14,27.00
2016,03,13,10,15,10.10
2016,03,13,10,16,16.30
2016,03,13,10,17,16.10
2016,03,13,10,18,23.30
2016,03,13,10,19,23.80
2016,03,13,10,20,22.40
2016,03,13,10,21,24.50
2016,03,13,10,22,25.20
2016,03,13,10,23,16.00
2016,03,13,10,24,12.80
2016,03,13,10,25,17.20
2016,03,13,10,26,22.10
2016,03,13,10,27,16.70
2016,03,13,10,28,17.70
2016,03,13,10,29,19.20
2016,03,13,10,30,22.00
2016,03,13,10,31,19.00
2016,03,13,10,32,18.20
2016,03,13,10,33,17.80
2016,03,13,10,34,25.00
2016,03,13,10,35,23.50
2016,03,13,10,36,19.50
2016,03,13,10,37,21.60
2016,03,13,10,38,23.00
2016,03,13,10,39,14.80
2016,03,13,10,40,22.40
2016,03,13,10,41,27.40
2016,03,13,10,42,19.10
2016,03,13,10,43,17.30
2016,03,13,10,44,22.20
2016,03,13,10,45,24.50
2016,03,13,10,46,20.30
2016,03,13,10,47,23.30
2016,03,13,10,48,18.80
2016,03,13,10,49,23.10
2016,03,13,10,50,20.40
2016,03,13,10,51,14.20
2016,03,13,10,52,12.50
2016,03,13,10,53,15.40
2016,03,13,10,54,11.20
2016,03,13,10,55,17.70
2016,03,13,10,56,20.40
2016,03,13,10,57,24.80
2016,03,13,10,58,29.50
2016,03,13,10,59,29.10
2016,03,13,11,00,27.90
2016,03,13,11,01,26.30
2016,03,13,11,02,25.10
2016,03,13,11,03,24.30
2016,03,13,11,04,31.00
2016,03,13,11,05,19.20
2016,03,13,11,06,14.70
2016,03,13,11,07,23.20
2016,03,13,11,08,23.20
2016,03,13,11,09,23.90
2016,03,13,11,10,27.80
2016,03,13,11,11,29.10
2016,03,13,11,12,29.40
2016,03,13,11,13,26.00
2016,03,13,11,14,25.70
2016,03,13,11,15,17.10
2016,03,13,11,16,12.80
2016,03,13,11,17,26.40
2016,03,13,11,18,25.80
2016,03,13,11,19,29.10
2016,03,13,11,20,18.80
2016,03,13,11,21,19.20
2016,03,13,11,22,23.90
2016,03,13,11,23,21.60
2016,03,13,11,24,20.60
2016,03,13,11,25,26.30
2016,03,13,11,26,19.80
2016,03,13,11,27,26.90
2016,03,13,11,28,25.10
2016,03,13,11,29,27.70
2016,03,13,11,30,19.90
2016,03,13,11,31,26.00
2016,03,13,11,32,20.40
2016,03,13,11,33,25.60
2016,03,13,11,34,33.00
2016,03,13,11,35,25.40
2016,03,13,11,36,24.50
2016,03,13,11,37,24.70
2016,03,13,11,38,27.20
2016,03,13,11,39,25.00
2016,03,13,11,40,25.60
2016,03,13,11,41,21.20
2016,03,13,11,42,27.40
2016,03,13,11,43,22.20
2016,03,13,11,44,24.50
2016,03,13,11,45,30.30
2016,03,13,11,46,26.30
2016,03,13,11,47,20.40
2016,03,13,11,48,26.10
2016,03,13,11,49,24.30
2016,03,13,11,50,28.30
2016,03,13,11,51,23.80
2016,03,13,11,52,17.60
2016,03,13,11,53,27.60
2016,03,13,11,54,25.90
2016,03,13,11,55,34.10
2016,03,13,11,56,29.70
2016,03,13,11,57,23.10
2016,03,13,11,58,19.90
2016,03,13,11,59,23.10
2016,03,13,12,00,24.50
2016,03,13,12,01,28.10
2016,03,13,12,02,28.60
2016,03,13,12,03,27.00
2016,03,13,12,04,24.30
2016,03,13,12,05,27.40
2016,03,13,12,06,31.60
2016,03,13,12,07,26.10
2016,03,13,12,08,23.40
2016,03,13,12,09,29.50
2016,03,13,12,10,21.70
2016,03,13,12,11,27.20
2016,03,13,12,12,31.10
2016,03,13,12,13,28.80
2016,03,13,12,14,25.80
2016,03,13,12,15,26.80
2016,03,13,12,16,25.30
2016,03,13,12,17,31.50
2016,03,13,12,18,30.40
2016,03,13,12,19,28.40
2016,03,13,12,20,30.00
2016,03,13,12,21,26.50
2016,03,13,12,22,19.20
2016,03,13,12,23,20.60
2016,03,13,12,24,20.80
2016,03,13,12,25,23.70
2016,03,13,12,26,26.60
2016,03,13,12,27,24.50
2016,03,13,12,28,21.90
2016,03,13,12,29,30.00
2016,03,13,12,30,24.00
2016,03,13,12,31,23.30
2016,03,13,12,32,21.50
2016,03,13,12,33,20.40
2016,03,13,12,34,31.10
2016,03,13,12,35,29.70
2016,03,13,12,36,27.10
2016,03,13,12,37,25.00
2016,03,13,12,38,24.30
2016,03,13,12,39,22.00
2016,03,13,12,40,23.60
2016,03,13,12,41,17.40
2016,03,13,12,42,22.40
2016,03,13,12,43,21.10
2016,03,13,12,44,33.00
2016,03,13,12,45,26.20
2016,03,13,12,46,26.00
2016,03,13,12,47,32.40
2016,03,13,12,48,25.20
2016,03,13,12,49,22.50
2016,03,13,12,50,25.10
2016,03,13,12,51,19.10
2016,03,13,12,52,34.40
2016,03,13,12,53,31.30
2016,03,13,12,54,23.60
2016,03,13,12,55,29.50
2016,03,13,12,56,34.20
2016,03,13,12,57,23.60
2016,03,13,12,58,25.90
2016,03,13,12,59,26.40
2016,03,13,13,00,20.40
2016,03,13,13,01,23.20
2016,03,13,13,02,23.40
2016,03,13,13,03,24.60
2016,03,13,13,04,12.20
2016,03,13,13,05,32.80
2016,03,13,13,06,23.30
2016,03,13,13,07,28.10
2016,03,13,13,08,28.10
2016,03,13,13,09,17.10
2016,03,13,13,10,28.00
2016,03,13,13,11,19.60
2016,03,13,13,12,16.80
2016,03,13,13,13,18.10
2016,03,13,13,14,17.80
2016,03,13,13,15,27.00
2016,03,13,13,16,26.80
2016,03,13,13,17,22.70
2016,03,13,13,18,19.50
2016,03,13,13,19,20.30
2016,03,13,13,20,22.70
2016,03,13,13,21,21.90
2016,03,13,13,22,28.60
2016,03,13,13,23,18.30
2016,03,13,13,24,29.30
2016,03,13,13,25,22.90
2016,03,13,13,26,20.80
2016,03,13,13,27,30.20
2016,03,13,13,28,36.10
2016,03,13,13,29,29.50
2016,03,13,13,30,23.50
2016,03,13,13,31,28.60
2016,03,13,13,32,29.40
2016,03,13,13,33,22.50
2016,03,13,13,34,34.60
2016,03,13,13,35,31.40
2016,03,13,13,36,20.40
2016,03,13,13,37,23.10
2016,03,13,13,38,19.60
2016,03,13,13,39,28.60
2016,03,13,13,40,23.10
2016,03,13,13,41,20.80
2016,03,13,13,42,26.30
2016,03,13,13,43,20.60
2016,03,13,13,44,26.30
2016,03,13,13,45,23.10
2016,03,13,13,46,21.70
2016,03,13,13,47,27.70
2016,03,13,13,48,36.90
2016,03,13,13,49,31.00
2016,03,13,13,50,34.20
2016,03,13,13,51,29.70
2016,03,13,13,52,22.60
2016,03,13,13,53,31.50
2016,03,13,13,54,32.30
2016,03,13,13,55,33.20
2016,03,13,13,56,25.80
2016,03,13,13,57,24.00
2016,03,13,13,58,21.80
2016,03,13,13,59,36.20
2016,03,13,14,00,21.20
2016,03,13,14,01,34.10
2016,03,13,14,02,18.30
2016,03,13,14,03,23.10
2016,03,13,14,04,25.60
2016,03,13,14,05,33.30
2016,03,13,14,06,23.70
2016,03,13,14,07,34.10
2016,03,13,14,08,26.30
2016,03,13,14,09,36.90
2016,03,13,14,10,34.30
2016,03,13,14,11,28.00
2016,03,13,14,12,32.40
2016,03,13,14,13,32.30
2016,03,13,14,14,34.10
2016,03,13,14,15,26.80
2016,03,13,14,16,32.60
2016,03,13,14,17,33.30
2016,03,13,14,18,27.10
2016,03,13,14,19,28.40
2016,03,13,14,20,29.00
2016,03,13,14,21,33.80
2016,03,13,14,22,35.30
2016,03,13,14,23,33.40
2016,03,13,14,24,34.50
2016,03,13,14,25,30.50
2016,03,13,14,26,41.50
2016,03,13,14,27,25.80
2016,03,13,14,28,43.70
2016,03,13,14,29,36.50
2016,03,13,14,30,33.10
2016,03,13,14,31,24.90
2016,03,13,14,32,30.90
2016,03,13,14,33,35.10
2016,03,13,14,34,39.60
2016,03,13,14,35,35.30
2016,03,13,14,36,32.10
2016,03,13,14,37,29.10
2016,03,13,14,38,30.10
2016,03,13,14,39,34.40
2016,03,13,14,40,41.20
2016,03,13,14,41,34.80
2016,03,13,14,42,30.70
2016,03,13,14,43,34.70
2016,03,13,14,44,44.10
2016,03,13,14,45,31.70
2016,03,13,14,46,30.90
2016,03,13,14,47,27.40
2016,03,13,14,48,37.20
2016,03,13,14,49,32.80
2016,03,13,14,50,39.20
2016,03,13,14,51,43.10
2016,03,13,14,52,44.80
2016,03,13,14,53,31.80
2016,03,13,14,54,36.40
2016,03,13,14,55,35.00
2016,03,13,14,56,33.80
2016,03,13,14,57,30.70
2016,03,13,14,58,35.90
2016,03,13,14,59,41.10
2016,03,13,15,00,38.10
2016,03,13,15,01,37.90
2016,03,13,15,02,32.60
2016,03,13,15,03,30.40
2016,03,13,15,04,30.60
2016,03,13,15,05,29.50
2016,03,13,15,06,36.60
2016,03,13,15,07,28.60
2016,03,13,15,08,40.90
2016,03,13,15,09,39.30
2016,03,13,15,10,39.20
2016,03,13,15,11,35.80
2016,03,13,15,12,38.40
2016,03,13,15,13,35.20
2016,03,13,15,14,37.70
2016,03,13,15,15,35.00
2016,03,13,15,16,31.70
2016,03,13,15,17,30.80
2016,03,13,15,18,29.50
2016,03,13,15,19,30.40
2016,03,13,15,20,41.20
2016,03,13,15,21,33.60
2016,03,13,15,22,33.10
2016,03,13,15,23,34.20
2016,03,13,15,24,29.70
2016,03,13,15,25,27.20
2016,03,13,15,26,33.00
2016,03,13,15,27,34.80
2016,03,13,15,28,25.80
2016,03,13,15,29,36.60
2016,03,13,15,30,31.00
2016,03,13,15,31,31.40
2016,03,13,15,32,31.60
2016,03,13,15,33,34.40
2016,03,13,15,34,29.40
2016,03,13,15,35,28.00
2016,03,13,15,36,31.20
2016,03,13,15,37,31.60
2016,03,13,15,38,26.10
2016,03,13,15,39,25.40
2016,03,13,15,40,33.30
2016,03,13,15,41,27.90
2016,03,13,15,42,26.50
2016,03,13,15,43,25.60
2016,03,13,15,44,25.40
2016,03,13,15,45,34.30
2016,03,13,15,46,34.10
2016,03,13,15,47,30.20
2016,03,13,15,48,25.50
2016,03,13,15,49,25.70
2016,03,13,15,50,22.50
2016,03,13,15,51,25.10
2016,03,13,15,52,29.70
2016,03,13,15,53,26.80
2016,03,13,15,54,26.60
2016,03,13,15,55,32.30
2016,03,13,15,56,23.80
2016,03,13,15,57,20.60
2016,03,13,15,58,25.60
2016,03,13,15,59,28.40
2016,03,13,16,00,23.40
2016,03,13,16,01,31.70
2016,03,13,16,02,29.20
2016,03,13,16,03,24.30
2016,03,13,16,04,32.40
2016,03,13,16,05,27.80
2016,03,13,16,06,31.00
2016,03,13,16,07,25.90
2016,03,13,16,08,26.20
2016,03,13,16,09,22.60
2016,03,13,16,10,18.30
2016,03,13,16,11,24.00
2016,03,13,16,12,26.20
2016,03,13,16,13,31.40
2016,03,13,16,14,24.10
2016,03,13,16,15,26.00
2016,03,13,16,16,25.10
2016,03,13,16,17,32.70
2016,03,13,16,18,30.30
2016,03,13,16,19,34.80
2016,03,13,16,20,27.40
2016,03,13,16,21,27.20
2016,03,13,16,22,27.40
2016,03,13,16,23,19.80
2016,03,13,16,24,24.90
2016,03,13,16,25,26.60
2016,03,13,16,26,26.00
2016,03,13,16,27,26.90
2016,03,13,16,28,28.80
2016,03,13,16,29,27.20
2016,03,13,16,30,31.70
2016,03,13,16,31,17.20
2016,03,13,16,32,25.70
2016,03,13,16,33,28.10
2016,03,13,16,34,26.80
2016,03,13,16,35,24.00
2016,03,13,16,36,26.70
2016,03,13,16,37,26.80
2016,03,13,16,38,33.70
2016,03,13,16,39,36.00
2016,03,13,16,40,34.30
2016,03,13,16,41,36.00
2016,03,13,16,42,41.20
2016,03,13,16,43,30.70
2016,03,13,16,44,31.10
2016,03,13,16,45,37.90
2016,03,13,16,46,34.20
2016,03,13,16,47,35.40
2016,03,13,16,48,30.70
2016,03,13,16,49,44.10
2016,03,13,16,50,36.50
2016,03,13,16,51,41.00
2016,03,13,16,52,30.70
2016,03,13,16,53,35.10
2016,03,13,16,54,40.20
2016,03,13,16,55,34.80
2016,03,13,16,56,35.30
2016,03,13,16,57,25.80
2016,03,13,16,58,35.60
2016,03,13,16,59,33.20
2016,03,13,17,00,33.50
2016,03,13,17,01,35.40
2016,03,13,17,02,46.80
2016,03,13,17,03,42.00
2016,03,13,17,04,34.60
2016,03,13,17,05,39.60
2016,03,13,17,06,45.90
2016,03,13,17,07,49.30
2016,03,13,17,08,42.70
2016,03,13,17,09,43.10
2016,03,13,17,10,41.30
2016,03,13,17,11,37.30
2016,03,13,17,12,48.40
2016,03,13,17,13,52.60
2016,03,13,17,14,40.50
2016,03,13,17,15,54.50
2016,03,13,17,16,54.50
2016,03,13,17,17,49.70
2016,03,13,17,18,53.60
2016,03,13,17,19,48.90
2016,03,13,17,20,52.00
2016,03,13,17,21,67.20
2016,03,13,17,22,53.20
2016,03,13,17,23,54.60
2016,03,13,17,24,44.70
2016,03,13,17,25,48.40
2016,03,13,17,26,50.90
2016,03,13,17,27,60.60
2016,03,13,17,28,57.60
2016,03,13,17,29,55.30
2016,03,13,17,30,58.30
2016,03,13,17,31,69.80
2016,03,13,17,32,50.50
2016,03,13,17,33,54.40
2016,03,13,17,34,55.60
2016,03,13,17,35,57.40
2016,03,13,17,36,59.00
2016,03,13,17,37,52.50
2016,03,13,17,38,54.50
2016,03,13,17,39,53.80
2016,03,13,17,40,56.00
2016,03,13,17,41,48.90
2016,03,13,17,42,48.00
2016,03,13,17,43,49.00
2016,03,13,17,44,42.80
2016,03,13,17,45,47.60
2016,03,13,17,46,54.80
2016,03,13,17,47,46.80
2016,03,13,17,48,46.80
2016,03,13,17,49,47.10
2016,03,13,17,50,44.70
2016,03,13,17,51,58.00
2016,03,13,17,52,53.10
2016,03,13,17,53,51.30
2016,03,13,17,54,56.30
2016,03,13,17,55,44.90
2016,03,13,17,56,55.80
2016,03,13,17,57,57.20
2016,03,13,17,58,52.20
2016,03,13,17,59,50.80
2016,03,13,18,00,49.60
2016,03,13,18,01,48.50
2016,03,13,18,02,45.80
2016,03,13,18,03,45.10
2016,03,13,18,04,44.00
2016,03,13,18,05,50.50
2016,03,13,18,06,58.90
2016,03,13,18,07,54.50
2016,03,13,18,08,49.60
2016,03,13,18,09,46.90
2016,03,13,18,10,57.50
2016,03,13,18,11,59.10
2016,03,13,18,12,50.10
2016,03,13,18,13,48.30
2016,03,13,18,14,41.40
2016,03,13,18,15,55.90
2016,03,13,18,16,46.00
2016,03,13,18,17,55.40
2016,03,13,18,18,44.30
2016,03,13,18,19,41.60
2016,03,13,18,20,37.30
2016,03,13,18,21,32.30
2016,03,13,18,22,35.40
2016,03,13,18,23,41.50
2016,03,13,18,24,46.00